User: anonymous   Login
Location: Esp�n
(42.4593°N, 0.2047°W)
Time: 17:33:37
(UTC+00:00)
Language:

STARLINK-63 - Orbit

View from above orbital plane
View from above orbital plane
View from above satellite
View from above satellite

Ground track
Ground track

The orbit data is extracted from the following two-line orbital elements,

1 44265U 19029AG  20228.41164429  .00106159  15493-4  29347-3 0  9993
2 44265  52.9957 279.8479 0001463  53.6098 306.5062 15.93787641 68345
Epoch (UTC): 15 August 2020 09:52:46
Eccentricity: 0.0001463
inclination: 52.9957°
perigee height: 291 km
apogee height: 292 km
right ascension of ascending node: 279.8479°
argument of perigee: 53.6098°
revolutions per day: 15.93787641
mean anomaly at epoch: 306.5062°
orbit number at epoch: 6834

The dashed part of the orbit path shows where the satellite is in the earth's shadow,  

DLR